Flag for U.S.A. Weather past 2 weeks in Newark, New Jersey, U.S.A.

Now
22 °F

Light snow. Mostly cloudy.


Feels Like: 10 °F
Forecast: 11 / 26 °F
Wind: 12 mph from Northwest

Location: Newark International Airport

Current Time: Mar 5, 2015 at 7:57:57 PM

Latest Report: Mar 5, 2015 at 6:51 PM


Visibility: 8 mi

Pressure: 30.25 "Hg

Humidity: 75%

Dew point: 15 °F

Location of NewarkLocation

Historic Weather in Newark — Graph

°F

Newark temperature yesterday

Maximum temperature yesterday: 43 °F (at 5:49 PM)
Minimum temperature yesterday: 35 °F (at 12:51 AM)
Average temperature yesterday: 39 °F

Past Weeks' High & Low Weather Summary

 TemperatureHumidityPressure
High43 °F (Mar 4, 5:49 PM)97% (Mar 4, 8:51 PM)30.83 "Hg (Mar 4, 8:51 PM)
Low1 °F (Feb 20, 5:51 AM)27% (Feb 28, 3:51 PM)29.73 "Hg (Feb 18, 11:51 PM)
Average25 °F61%30.20 "Hg
* Reported Feb 18 6:51 PM — Mar 5 6:51 PM, Newark, Weather by CustomWeather, © 2015

Note: Actual official high and low records may vary slightly from our data, if they occured in-between our weather recording intervals... More about our weather records

Advertising

Newark weather history for previous 24 hours

 ConditionsComfort  
Time TempWeatherWind HumidityBarometerVisibility
6:51 PM
Thu, Mar 5
22 °FLight snow. Mostly cloudy.12 mph75%30.25 "Hg8 mi
6:00 PM21 °FLight snow. Mostly cloudy.12 mph80%30.24 "Hg3 mi
4:51 PM21 °FLight snow. Mostly cloudy.12 mph88%30.22 "Hg1 mi
3:51 PM22 °FLight snow. Cloudy.9 mph85%30.20 "Hg1 mi
2:53 PM25 °FLight snow. Cloudy.12 mph80%30.19 "Hg1 mi
1:58 PM23 °FLight snow. Cloudy.9 mph86%30.17 "Hg2 mi
12:51 PM22 °FSnow. Mostly cloudy.15 mph92%30.18 "Hg1 mi
11:51 AM25 °FSnow. Mostly cloudy.12 mph88%30.18 "Hg1 mi
10:51 AM27 °FSnow. Mostly cloudy.15 mph92%30.12 "Hg0 mi
9:51 AM28 °FLight snow. Cloudy.21 mph93%30.14 "Hg1 mi
8:51 AM31 °FLight snow. Cloudy.12 mph89%30.11 "Hg1 mi
7:51 AM33 °FLight snow. Mostly cloudy.8 mph96%30.07 "Hg1 mi
6:51 AM33 °FLight snow. Fog.7 mph92%30.03 "Hg1 mi
5:51 AM33 °FLight snow. Fog.5 mph92%30.00 "Hg1 mi
4:51 AM34 °FLight snow. Fog.9 mph92%29.99 "Hg2 mi
3:51 AM34 °FLight rain. Fog.15 mph92%29.95 "Hg2 mi
2:51 AM38 °FLight rain. Fog.9 mph90%29.93 "Hg6 mi
1:51 AM39 °FLight rain. Fog.5 mph93%29.90 "Hg5 mi
12:51 AM40 °FLight rain. Fog.5 mph89%29.90 "Hg3 mi
11:51 PM
Wed, Mar 4
41 °FLight rain. Fog.6 mph93%29.91 "Hg3 mi
10:51 PM41 °FLight rain. Fog.8 mph93%29.92 "Hg2 mi
9:51 PM39 °FLight rain. Fog.5 mph96%29.91 "Hg2 mi
8:51 PM40 °FLight rain. Fog.9 mph97%29.91 "Hg2 mi
7:51 PM41 °FFog.9 mph93%29.88 "Hg4 mi
Weather by CustomWeather, © 2015

See weather overviewHow to use our weather pages